Location: Pitton
(51.0667°N, 1.7000°W)
Time: 05:13:22
(UTC+00:00)

Meteor 2-5 Rocket - Pass Details

Date: 17 September 2019
Orbit: 834 x 911 km, 81.2° (Epoch: 22 October)

Event Time Altitude Azimuth Distance (km) Brightness Sun altitude
Rises 19:51:43 0° 349° (N) 3,472 7.4 -15.2°
Reaches altitude 10° 19:54:12 10° 353° (N) 2,542 6.6 -15.6°
Maximum altitude 19:59:55 59° 73° (ENE) 1,027 3.9 -16.4°
Enters shadow 20:03:43 22° 146° (SE) 1,864 5.0 -16.9°
